Time,TemperatureF,DewpointF,PressureIn,WindDirection,WindDirectionDegrees,WindSpeedMPH,WindSpeedGustMPH,Humidity,HourlyPrecipIn,Conditions,Clouds,dailyrainin,SoftwareType,DateUTC
2013-11-02 00:10:00,28.6,22.9,30.23,ENE,67,0.0,-999.0,79,-99.99,,,0.00,Acu-Link.com,2013-11-02 06:10:00,
2013-11-02 00:25:00,28.9,23.2,30.24,ENE,67,0.0,-999.0,79,-99.99,,,0.00,Acu-Link.com,2013-11-02 06:25:00,
2013-11-02 00:41:00,28.4,22.7,30.23,ENE,67,1.7,-999.0,79,-99.99,,,0.00,Acu-Link.com,2013-11-02 06:41:00,
2013-11-02 00:56:00,29.3,23.9,30.24,WSW,247,2.7,-999.0,80,-99.99,,,0.00,Acu-Link.com,2013-11-02 06:56:00,
2013-11-02 01:11:00,28.6,22.9,30.24,WSW,247,0.0,-999.0,79,-99.99,,,0.00,Acu-Link.com,2013-11-02 07:11:00,
2013-11-02 01:26:00,28.4,23.0,30.24,South,180,1.7,-999.0,80,-99.99,,,0.00,Acu-Link.com,2013-11-02 07:26:00,
2013-11-02 01:41:00,27.3,22.0,30.24,South,180,1.7,-999.0,80,-99.99,,,0.00,Acu-Link.com,2013-11-02 07:41:00,
2013-11-02 01:56:00,27.0,21.7,30.24,South,180,2.2,-999.0,80,-99.99,,,0.00,Acu-Link.com,2013-11-02 07:56:00,
2013-11-02 02:12:00,26.4,21.4,30.25,South,180,0.0,-999.0,81,-99.99,,,0.00,Acu-Link.com,2013-11-02 08:12:00,
2013-11-02 02:27:00,26.2,21.5,30.25,South,180,2.7,-999.0,82,-99.99,,,0.00,Acu-Link.com,2013-11-02 08:27:00,
2013-11-02 02:42:00,27.0,22.3,30.25,South,180,0.0,-999.0,82,-99.99,,,0.00,Acu-Link.com,2013-11-02 08:42:00,
2013-11-02 02:57:00,26.1,21.4,30.24,South,180,0.0,-999.0,82,-99.99,,,0.00,Acu-Link.com,2013-11-02 08:57:00,
2013-11-02 03:12:00,26.6,22.1,30.23,South,180,2.2,-999.0,83,-99.99,,,0.00,Acu-Link.com,2013-11-02 09:12:00,
2013-11-02 03:27:00,28.8,23.4,30.24,SSE,157,4.2,-999.0,80,-99.99,,,0.00,Acu-Link.com,2013-11-02 09:27:00,
2013-11-02 03:42:00,27.1,21.5,30.24,South,180,0.0,-999.0,79,-99.99,,,0.00,Acu-Link.com,2013-11-02 09:42:00,
2013-11-02 03:57:00,25.9,20.9,30.24,South,180,2.2,-999.0,81,-99.99,,,0.00,Acu-Link.com,2013-11-02 09:57:00,
2013-11-02 04:13:00,25.5,20.8,30.24,South,180,0.0,-999.0,82,-99.99,,,0.00,Acu-Link.com,2013-11-02 10:13:00,
2013-11-02 04:28:00,25.3,20.6,30.23,South,180,0.0,-999.0,82,-99.99,,,0.00,Acu-Link.com,2013-11-02 10:28:00,
2013-11-02 04:43:00,25.0,20.3,30.23,South,180,0.0,-999.0,82,-99.99,,,0.00,Acu-Link.com,2013-11-02 10:43:00,
2013-11-02 04:58:00,24.3,19.9,30.22,South,180,0.0,-999.0,83,-99.99,,,0.00,Acu-Link.com,2013-11-02 10:58:00,
2013-11-02 05:13:00,23.9,19.8,30.23,South,180,0.0,-999.0,84,-99.99,,,0.00,Acu-Link.com,2013-11-02 11:13:00,
2013-11-02 05:29:00,23.5,19.4,30.23,South,180,0.0,-999.0,84,-99.99,,,0.00,Acu-Link.com,2013-11-02 11:29:00,
2013-11-02 05:44:00,23.5,19.4,30.23,South,180,2.2,-999.0,84,-99.99,,,0.00,Acu-Link.com,2013-11-02 11:44:00,
2013-11-02 05:59:00,23.7,19.6,30.24,South,180,0.0,-999.0,84,-99.99,,,0.00,Acu-Link.com,2013-11-02 11:59:00,
2013-11-02 06:14:00,23.4,19.3,30.23,South,180,0.0,-999.0,84,-99.99,,,0.00,Acu-Link.com,2013-11-02 12:14:00,
2013-11-02 06:29:00,23.4,19.3,30.22,South,180,0.0,-999.0,84,-99.99,,,0.00,Acu-Link.com,2013-11-02 12:29:00,
2013-11-02 06:45:00,23.5,19.7,30.23,South,180,2.2,-999.0,85,-99.99,,,0.00,Acu-Link.com,2013-11-02 12:45:00,
2013-11-02 07:00:00,24.1,20.3,30.24,South,180,0.0,-999.0,85,-99.99,,,0.00,Acu-Link.com,2013-11-02 13:00:00,
2013-11-02 07:15:00,23.4,19.3,30.23,South,180,0.0,-999.0,84,-99.99,,,0.00,Acu-Link.com,2013-11-02 13:15:00,
2013-11-02 07:30:00,23.0,18.9,30.22,South,180,2.7,-999.0,84,-99.99,,,0.00,Acu-Link.com,2013-11-02 13:30:00,
2013-11-02 07:46:00,24.6,20.5,30.23,South,180,1.1,-999.0,84,-99.99,,,0.00,Acu-Link.com,2013-11-02 13:46:00,
2013-11-02 08:01:00,24.4,20.3,30.24,South,180,0.0,-999.0,84,-99.99,,,0.00,Acu-Link.com,2013-11-02 14:01:00,
2013-11-02 08:16:00,24.8,20.7,30.26,South,180,0.0,-999.0,84,-99.99,,,0.00,Acu-Link.com,2013-11-02 14:16:00,
2013-11-02 08:31:00,30.4,25.0,30.27,South,180,3.2,-999.0,80,-99.99,,,0.00,Acu-Link.com,2013-11-02 14:31:00,
2013-11-02 08:46:00,31.6,24.0,30.27,NNE,22,2.2,-999.0,73,-99.99,,,0.00,Acu-Link.com,2013-11-02 14:46:00,
2013-11-02 09:01:00,34.0,25.3,30.27,NE,45,0.0,-999.0,70,-99.99,,,0.00,Acu-Link.com,2013-11-02 15:01:00,
2013-11-02 09:16:00,34.5,25.7,30.27,NE,45,2.7,-999.0,70,-99.99,,,0.00,Acu-Link.com,2013-11-02 15:16:00,
2013-11-02 09:31:00,36.3,27.5,30.27,West,270,3.7,-999.0,70,-99.99,,,0.00,Acu-Link.com,2013-11-02 15:31:00,
2013-11-02 09:46:00,37.0,27.8,30.26,NNW,337,2.2,-999.0,69,-99.99,,,0.00,Acu-Link.com,2013-11-02 15:46:00,
2013-11-02 10:02:00,38.8,28.4,30.26,WNW,292,2.7,-999.0,66,-99.99,,,0.00,Acu-Link.com,2013-11-02 16:02:00,
2013-11-02 10:17:00,40.8,28.4,30.25,WNW,292,2.2,-999.0,61,-99.99,,,0.00,Acu-Link.com,2013-11-02 16:17:00,
2013-11-02 10:32:00,42.6,28.9,30.25,WNW,292,2.7,-999.0,58,-99.99,,,0.00,Acu-Link.com,2013-11-02 16:32:00,
2013-11-02 10:47:00,44.1,28.1,30.25,WNW,292,0.0,-999.0,53,-99.99,,,0.00,Acu-Link.com,2013-11-02 16:47:00,
2013-11-02 11:03:00,45.3,27.8,30.25,WNW,292,0.0,-999.0,50,-99.99,,,0.00,Acu-Link.com,2013-11-02 17:03:00,
2013-11-02 11:18:00,47.8,30.1,30.24,SSW,202,3.2,-999.0,50,-99.99,,,0.00,Acu-Link.com,2013-11-02 17:18:00,
2013-11-02 11:33:00,48.2,29.4,30.24,WNW,292,3.2,-999.0,48,-99.99,,,0.00,Acu-Link.com,2013-11-02 17:33:00,
2013-11-02 11:48:00,48.9,30.6,30.23,WNW,292,2.2,-999.0,49,-99.99,,,0.00,Acu-Link.com,2013-11-02 17:48:00,
2013-11-02 12:03:00,50.4,30.9,30.22,SSW,202,4.7,-999.0,47,-99.99,,,0.00,Acu-Link.com,2013-11-02 18:03:00,
2013-11-02 12:18:00,50.9,30.3,30.21,West,270,2.2,-999.0,45,-99.99,,,0.00,Acu-Link.com,2013-11-02 18:18:00,
2013-11-02 12:33:00,51.6,30.4,30.21,WSW,247,4.2,-999.0,44,-99.99,,,0.00,Acu-Link.com,2013-11-02 18:33:00,
2013-11-02 12:49:00,52.7,31.4,30.20,West,270,5.3,-999.0,44,-99.99,,,0.00,Acu-Link.com,2013-11-02 18:49:00,
2013-11-02 13:04:00,52.5,30.1,30.18,ENE,67,5.3,-999.0,42,-99.99,,,0.00,Acu-Link.com,2013-11-02 19:04:00,
2013-11-02 13:19:00,54.0,32.0,30.18,NE,45,3.7,-999.0,43,-99.99,,,0.00,Acu-Link.com,2013-11-02 19:19:00,
2013-11-02 13:34:00,54.3,29.9,30.15,WNW,292,2.7,-999.0,39,-99.99,,,0.00,Acu-Link.com,2013-11-02 19:34:00,
2013-11-02 13:49:00,54.5,29.4,30.15,NE,45,1.7,-999.0,38,-99.99,,,0.00,Acu-Link.com,2013-11-02 19:49:00,
2013-11-02 14:05:00,54.9,29.8,30.14,West,270,2.7,-999.0,38,-99.99,,,0.00,Acu-Link.com,2013-11-02 20:05:00,
2013-11-02 14:20:00,55.6,30.4,30.13,South,180,2.7,-999.0,38,-99.99,,,0.00,Acu-Link.com,2013-11-02 20:20:00,
2013-11-02 14:35:00,55.4,29.6,30.12,NW,315,4.2,-999.0,37,-99.99,,,0.00,Acu-Link.com,2013-11-02 20:35:00,
2013-11-02 14:50:00,56.1,30.8,30.11,WNW,292,1.1,-999.0,38,-99.99,,,0.00,Acu-Link.com,2013-11-02 20:50:00,
2013-11-02 15:05:00,56.8,32.1,30.10,WSW,247,3.7,-999.0,39,-99.99,,,0.00,Acu-Link.com,2013-11-02 21:05:00,
2013-11-02 15:21:00,56.3,29.0,30.10,South,180,2.2,-999.0,35,-99.99,,,0.00,Acu-Link.com,2013-11-02 21:21:00,
2013-11-02 15:36:00,57.2,29.1,30.08,WNW,292,2.7,-999.0,34,-99.99,,,0.00,Acu-Link.com,2013-11-02 21:36:00,
2013-11-02 15:51:00,56.7,29.4,30.08,WNW,292,0.0,-999.0,35,-99.99,,,0.00,Acu-Link.com,2013-11-02 21:51:00,
2013-11-02 16:06:00,57.4,30.0,30.08,NW,315,1.7,-999.0,35,-99.99,,,0.00,Acu-Link.com,2013-11-02 22:06:00,
2013-11-02 16:22:00,57.6,31.5,30.07,WSW,247,2.7,-999.0,37,-99.99,,,0.00,Acu-Link.com,2013-11-02 22:22:00,
2013-11-02 16:37:00,57.4,31.3,30.07,SW,225,2.2,-999.0,37,-99.99,,,0.00,Acu-Link.com,2013-11-02 22:37:00,
2013-11-02 16:52:00,56.7,31.4,30.07,WNW,292,2.7,-999.0,38,-99.99,,,0.00,Acu-Link.com,2013-11-02 22:52:00,
2013-11-02 17:07:00,55.4,32.7,30.06,SW,225,2.2,-999.0,42,-99.99,,,0.00,Acu-Link.com,2013-11-02 23:07:00,
2013-11-02 17:23:00,54.5,31.9,30.06,WSW,247,1.1,-999.0,42,-99.99,,,0.00,Acu-Link.com,2013-11-02 23:23:00,
2013-11-02 17:38:00,53.8,30.1,30.05,South,180,1.7,-999.0,40,-99.99,,,0.00,Acu-Link.com,2013-11-02 23:38:00,
2013-11-02 17:53:00,51.3,29.0,30.05,West,270,0.0,-999.0,42,-99.99,,,0.00,Acu-Link.com,2013-11-02 23:53:00,
2013-11-02 18:08:00,47.5,30.3,30.05,ESE,112,3.2,-999.0,51,-99.99,,,0.00,Acu-Link.com,2013-11-03 00:08:00,
2013-11-02 18:23:00,43.9,29.7,30.05,ESE,112,3.7,-999.0,57,-99.99,,,0.00,Acu-Link.com,2013-11-03 00:23:00,
2013-11-02 18:39:00,41.4,29.4,30.05,ESE,112,3.2,-999.0,62,-99.99,,,0.00,Acu-Link.com,2013-11-03 00:39:00,
2013-11-02 18:54:00,40.1,29.3,30.05,ESE,112,3.7,-999.0,65,-99.99,,,0.00,Acu-Link.com,2013-11-03 00:54:00,
2013-11-02 19:09:00,39.4,28.6,30.05,ESE,112,2.7,-999.0,65,-99.99,,,0.00,Acu-Link.com,2013-11-03 01:09:00,
2013-11-02 19:24:00,39.0,29.0,30.05,ESE,112,2.7,-999.0,67,-99.99,,,0.00,Acu-Link.com,2013-11-03 01:24:00,
2013-11-02 19:39:00,39.4,29.4,30.05,SSE,157,3.7,-999.0,67,-99.99,,,0.00,Acu-Link.com,2013-11-03 01:39:00,
2013-11-02 19:55:00,38.1,28.1,30.05,SSE,157,0.0,-999.0,67,-99.99,,,0.00,Acu-Link.com,2013-11-03 01:55:00,
2013-11-02 20:10:00,36.3,27.1,30.05,SSE,157,0.0,-999.0,69,-99.99,,,0.00,Acu-Link.com,2013-11-03 02:10:00,
2013-11-02 20:25:00,35.2,26.8,30.05,SSE,157,0.0,-999.0,71,-99.99,,,0.00,Acu-Link.com,2013-11-03 02:25:00,
2013-11-02 20:40:00,35.8,27.0,30.04,SSW,202,2.7,-999.0,70,-99.99,,,0.00,Acu-Link.com,2013-11-03 02:40:00,
2013-11-02 20:55:00,35.6,27.1,30.04,WNW,292,2.7,-999.0,71,-99.99,,,0.00,Acu-Link.com,2013-11-03 02:55:00,
2013-11-02 21:10:00,34.7,26.6,30.03,ESE,112,0.0,-999.0,72,-99.99,,,0.00,Acu-Link.com,2013-11-03 03:10:00,
2013-11-02 21:26:00,33.6,25.9,30.03,ESE,112,0.0,-999.0,73,-99.99,,,0.00,Acu-Link.com,2013-11-03 03:26:00,
2013-11-02 21:41:00,32.7,25.7,30.04,ESE,112,0.0,-999.0,75,-99.99,,,0.00,Acu-Link.com,2013-11-03 03:41:00,
2013-11-02 21:56:00,32.0,25.6,30.04,ESE,112,0.0,-999.0,77,-99.99,,,0.00,Acu-Link.com,2013-11-03 03:56:00,
2013-11-02 22:11:00,32.9,26.2,30.03,ESE,112,0.0,-999.0,76,-99.99,,,0.00,Acu-Link.com,2013-11-03 04:11:00,
2013-11-02 22:26:00,32.2,25.8,30.03,ESE,112,1.7,-999.0,77,-99.99,,,0.00,Acu-Link.com,2013-11-03 04:26:00,
2013-11-02 22:41:00,32.5,25.8,30.02,ESE,112,0.0,-999.0,76,-99.99,,,0.00,Acu-Link.com,2013-11-03 04:41:00,
2013-11-02 22:57:00,35.8,27.3,30.01,South,180,2.7,-999.0,71,-99.99,,,0.00,Acu-Link.com,2013-11-03 04:57:00,
2013-11-02 23:12:00,34.3,25.9,30.01,SSE,157,1.7,-999.0,71,-99.99,,,0.00,Acu-Link.com,2013-11-03 05:12:00,
2013-11-02 23:27:00,33.3,25.3,30.01,SSE,157,0.0,-999.0,72,-99.99,,,0.00,Acu-Link.com,2013-11-03 05:27:00,
2013-11-02 23:43:00,32.7,25.3,30.00,SSE,157,0.0,-999.0,74,-99.99,,,0.00,Acu-Link.com,2013-11-03 05:43:00,
2013-11-02 23:58:00,32.5,25.2,29.99,SSE,157,2.2,-999.0,74,-99.99,,,0.00,Acu-Link.com,2013-11-03 05:58:00,